TimeCDT,TemperatureF,Dew PointF,Humidity,Sea Level PressureIn,VisibilityMPH,Wind Direction,Wind SpeedMPH,Gust SpeedMPH,PrecipitationIn,Events,Conditions,WindDirDegrees,DateUTC
12:53 AM,77.0,59.0,54,29.88,10.0,SSE,9.2,-,N/A,,Partly Cloudy,150,2013-07-12 05:53:00
1:53 AM,75.9,57.9,54,29.86,10.0,SSE,13.8,-,N/A,,Clear,160,2013-07-12 06:53:00
2:53 AM,73.0,59.0,61,29.85,10.0,South,10.4,-,N/A,,Clear,180,2013-07-12 07:53:00
3:53 AM,71.1,59.0,66,29.84,10.0,South,9.2,-,N/A,,Clear,170,2013-07-12 08:53:00
4:53 AM,72.0,59.0,64,29.84,10.0,South,11.5,-,N/A,,Clear,170,2013-07-12 09:53:00
5:53 AM,71.1,59.0,66,29.84,10.0,South,11.5,-,N/A,,Clear,190,2013-07-12 10:53:00
6:53 AM,70.0,57.9,65,29.85,10.0,South,11.5,-,N/A,,Clear,190,2013-07-12 11:53:00
7:53 AM,73.0,59.0,61,29.87,10.0,SSW,9.2,-,N/A,,Clear,200,2013-07-12 12:53:00
8:53 AM,80.1,57.0,45,29.86,10.0,South,17.3,-,N/A,,Clear,190,2013-07-12 13:53:00
9:53 AM,84.9,55.0,36,29.86,10.0,SSW,18.4,26.5,N/A,,Clear,210,2013-07-12 14:53:00
10:53 AM,89.1,54.0,30,29.86,10.0,SSW,23.0,28.8,N/A,,Clear,210,2013-07-12 15:53:00
11:53 AM,91.9,54.0,27,29.86,10.0,SSW,17.3,25.3,N/A,,Clear,200,2013-07-12 16:53:00
12:53 PM,95.0,52.0,23,29.84,10.0,SSW,23.0,32.2,N/A,,Clear,200,2013-07-12 17:53:00
1:53 PM,97.0,53.1,23,29.81,10.0,South,17.3,28.8,N/A,,Scattered Clouds,190,2013-07-12 18:53:00
2:53 PM,97.0,52.0,22,29.80,10.0,South,18.4,26.5,N/A,,Clear,190,2013-07-12 19:53:00
3:53 PM,97.0,50.0,20,29.80,10.0,SSW,18.4,26.5,N/A,,Clear,200,2013-07-12 20:53:00
4:53 PM,98.1,50.0,20,29.78,10.0,SSW,25.3,29.9,N/A,,Clear,210,2013-07-12 21:53:00
5:53 PM,98.1,50.0,20,29.77,10.0,South,10.4,25.3,N/A,,Partly Cloudy,190,2013-07-12 22:53:00
6:53 PM,95.0,48.9,21,29.77,10.0,SSE,23.0,27.6,N/A,,Scattered Clouds,160,2013-07-12 23:53:00
7:53 PM,93.9,50.0,22,29.78,10.0,South,20.7,26.5,N/A,,Mostly Cloudy,180,2013-07-13 00:53:00
8:53 PM,91.0,51.1,25,29.78,10.0,South,19.6,-,N/A,,Partly Cloudy,170,2013-07-13 01:53:00
9:53 PM,87.1,52.0,30,29.80,10.0,South,15.0,-,N/A,,Clear,170,2013-07-13 02:53:00
10:53 PM,84.9,53.1,33,29.83,10.0,SSW,15.0,-,N/A,,Partly Cloudy,200,2013-07-13 03:53:00
11:53 PM,80.1,55.0,42,29.86,10.0,South,8.1,-,N/A,,Clear,190,2013-07-13 04:53:00